RPA5845 KBOS-KPHL

Flight info

Callsign RPA5845
Flight time 1h 13m
Altitude 30000
Route SSOXS7 SSOXS Q167 RIFLE Q439 BRIGS JIIMS4
Aircraft E75L/M-SDE3GILORVW/S

Departure

Time 2026-05-07 13:52
Airport Boston Logan International Airport (KBOS)

Arrival

Time 2026-05-07 15:06
Airport Philadelphia International Airport (KPHL)
Time Latitude Longitude Altitude Speed Heading
2026-05-07 13:35 42.36354 -71.02161 25 ft 0 kts 39°
2026-05-07 13:45 42.36355 -71.02160 23 ft 0 kts 49°
2026-05-07 13:46 42.36355 -71.02155 23 ft 0 kts 84°
2026-05-07 13:46 42.36355 -71.02153 23 ft 0 kts 105°
2026-05-07 13:46 42.36349 -71.02143 26 ft 0 kts 142°
2026-05-07 13:46 42.36331 -71.02127 23 ft 2 kts 170°
2026-05-07 13:47 42.36291 -71.02158 22 ft 13 kts 214°
2026-05-07 13:47 42.36189 -71.02252 21 ft 21 kts 210°
2026-05-07 13:47 42.36077 -71.02180 22 ft 21 kts 118°
2026-05-07 13:47 42.36003 -71.02010 24 ft 22 kts 120°
2026-05-07 13:48 42.35924 -71.01827 26 ft 23 kts 114°
2026-05-07 13:48 42.35891 -71.01622 28 ft 23 kts 99°
2026-05-07 13:48 42.35864 -71.01393 26 ft 26 kts 101°
2026-05-07 13:48 42.35835 -71.01137 21 ft 30 kts 97°
2026-05-07 13:49 42.35926 -71.00899 19 ft 31 kts 49°
2026-05-07 13:49 42.35947 -71.00654 23 ft 28 kts 109°
2026-05-07 13:49 42.35883 -71.00396 23 ft 28 kts 101°
2026-05-07 13:49 42.35917 -71.00144 27 ft 30 kts 76°
2026-05-07 13:50 42.35971 -70.99862 28 ft 32 kts 76°
2026-05-07 13:50 42.36034 -70.99562 26 ft 34 kts 75°
2026-05-07 13:50 42.36081 -70.99241 21 ft 36 kts 78°
2026-05-07 13:50 42.36120 -70.99014 22 ft 20 kts 76°
2026-05-07 13:51 42.36123 -70.98841 21 ft 12 kts 144°
2026-05-07 13:51 42.36028 -70.98824 20 ft 11 kts 204°
2026-05-07 13:51 42.35993 -70.98933 18 ft 17 kts 255°
2026-05-07 13:51 42.35965 -70.99104 19 ft 28 kts 258°
2026-05-07 13:52 42.35855 -70.99739 28 ft 109 kts 254°
2026-05-07 13:52 42.35633 -71.00995 363 ft 151 kts 258°
2026-05-07 13:52 42.35374 -71.02400 1462 ft 150 kts 259°
2026-05-07 13:52 42.35107 -71.03705 2729 ft 146 kts 255°
2026-05-07 13:53 42.34549 -71.05034 3411 ft 186 kts 230°
2026-05-07 13:53 42.33980 -71.05613 3718 ft 212 kts 211°
2026-05-07 13:53 42.33810 -71.05724 3806 ft 218 kts 206°
2026-05-07 13:53 42.31637 -71.05840 4912 ft 252 kts 169°
2026-05-07 13:54 42.29854 -71.05235 5465 ft 268 kts 169°
2026-05-07 13:54 42.28075 -71.04597 6859 ft 263 kts 170°
2026-05-07 13:54 42.26317 -71.03909 8473 ft 263 kts 172°
2026-05-07 13:54 42.24550 -71.03176 9904 ft 270 kts 174°
2026-05-07 13:55 42.22698 -71.02405 10877 ft 289 kts 174°
2026-05-07 13:55 42.20750 -71.01542 11762 ft 306 kts 173°
2026-05-07 13:55 42.18711 -71.00658 12475 ft 301 kts 181°
2026-05-07 13:55 42.16668 -71.00412 13227 ft 294 kts 187°
2026-05-07 13:56 42.14605 -70.99961 13951 ft 307 kts 179°
2026-05-07 13:56 42.12512 -70.99138 14600 ft 319 kts 173°
2026-05-07 13:56 42.10410 -70.98020 15235 ft 330 kts 169°
2026-05-07 13:56 42.08316 -70.96687 15883 ft 334 kts 166°
2026-05-07 13:57 42.06235 -70.95258 16541 ft 337 kts 165°
2026-05-07 13:57 42.04193 -70.93623 17212 ft 348 kts 159°
2026-05-07 13:57 42.02178 -70.91797 17905 ft 351 kts 158°
2026-05-07 13:57 42.00151 -70.89913 18519 ft 356 kts 158°
2026-05-07 13:58 41.98096 -70.87998 19072 ft 361 kts 159°
2026-05-07 13:58 41.96016 -70.86059 19691 ft 367 kts 159°
2026-05-07 13:58 41.93920 -70.84110 20321 ft 373 kts 160°
2026-05-07 13:58 41.91774 -70.82114 20969 ft 378 kts 160°
2026-05-07 13:59 41.89605 -70.80100 21637 ft 381 kts 161°
2026-05-07 13:59 41.87412 -70.78067 22321 ft 383 kts 161°
2026-05-07 13:59 41.85134 -70.76492 22997 ft 350 kts 181°
2026-05-07 13:59 41.83574 -70.76188 23464 ft 322 kts 197°
2026-05-07 14:00 41.81055 -70.77370 24264 ft 274 kts 230°
2026-05-07 14:00 41.79874 -70.79291 24914 ft 266 kts 239°
2026-05-07 14:00 41.78823 -70.81327 25499 ft 265 kts 240°
2026-05-07 14:00 41.77800 -70.83386 26145 ft 265 kts 241°
2026-05-07 14:01 41.76788 -70.85446 26801 ft 265 kts 242°
2026-05-07 14:01 41.75772 -70.87502 27456 ft 264 kts 240°
2026-05-07 14:01 41.75042 -70.88812 27958 ft 264 kts 238°
2026-05-07 14:01 41.73517 -70.91370 28878 ft 261 kts 238°
2026-05-07 14:02 41.72392 -70.93217 29564 ft 258 kts 238°
2026-05-07 14:02 41.71233 -70.95118 29751 ft 269 kts 238°
2026-05-07 14:02 41.70022 -70.97097 29832 ft 280 kts 238°
2026-05-07 14:02 41.68759 -70.99160 29869 ft 292 kts 237°
2026-05-07 14:03 41.67443 -71.01308 29888 ft 304 kts 237°
2026-05-07 14:03 41.64725 -71.05740 29873 ft 308 kts 237°
2026-05-07 14:04 41.62000 -71.10189 29854 ft 310 kts 237°
2026-05-07 14:04 41.59267 -71.14644 29880 ft 310 kts 237°
2026-05-07 14:05 41.56536 -71.19091 29866 ft 309 kts 237°
2026-05-07 14:05 41.53805 -71.23527 29883 ft 309 kts 237°
2026-05-07 14:06 41.51070 -71.27967 29886 ft 310 kts 237°
2026-05-07 14:06 41.48330 -71.32406 29879 ft 310 kts 237°
2026-05-07 14:07 41.46041 -71.36110 29850 ft 312 kts 237°
2026-05-07 14:07 41.42830 -71.41298 29900 ft 312 kts 237°
2026-05-07 14:08 41.40529 -71.45009 29889 ft 312 kts 237°
2026-05-07 14:08 41.37297 -71.50217 29886 ft 312 kts 237°
2026-05-07 14:09 41.34532 -71.54663 29900 ft 312 kts 237°
2026-05-07 14:09 41.31769 -71.59100 29897 ft 310 kts 237°
2026-05-07 14:10 41.29478 -71.62774 29888 ft 310 kts 237°
2026-05-07 14:10 41.26271 -71.67911 29898 ft 310 kts 237°
2026-05-07 14:11 41.23511 -71.72324 29909 ft 310 kts 237°
2026-05-07 14:11 41.20749 -71.76735 29886 ft 310 kts 237°
2026-05-07 14:12 41.17989 -71.81136 29908 ft 310 kts 237°
2026-05-07 14:12 41.15692 -71.84793 29841 ft 311 kts 237°
2026-05-07 14:13 41.12490 -71.89887 29931 ft 310 kts 237°
2026-05-07 14:13 41.10166 -71.93573 29935 ft 310 kts 237°
2026-05-07 14:14 41.07416 -71.97933 29915 ft 310 kts 237°
2026-05-07 14:14 41.04649 -72.02315 29911 ft 310 kts 237°
2026-05-07 14:15 41.01877 -72.06697 29907 ft 310 kts 237°
2026-05-07 14:15 40.99104 -72.11074 29870 ft 311 kts 237°
2026-05-07 14:16 40.96321 -72.15462 29906 ft 311 kts 237°
2026-05-07 14:16 40.93560 -72.19809 29893 ft 311 kts 237°
2026-05-07 14:17 40.90777 -72.24182 29901 ft 311 kts 237°
2026-05-07 14:17 40.87998 -72.28545 29909 ft 309 kts 236°
2026-05-07 14:18 40.85229 -72.32886 29910 ft 309 kts 236°
2026-05-07 14:18 40.82458 -72.37221 29838 ft 310 kts 236°
2026-05-07 14:19 40.79666 -72.41586 29906 ft 311 kts 236°
2026-05-07 14:19 40.76876 -72.45940 29922 ft 311 kts 236°
2026-05-07 14:20 40.74080 -72.50297 29915 ft 311 kts 236°
2026-05-07 14:20 40.71295 -72.54646 29942 ft 310 kts 237°
2026-05-07 14:21 40.68952 -72.58236 29948 ft 313 kts 234°
2026-05-07 14:21 40.65444 -72.63074 29904 ft 312 kts 233°
2026-05-07 14:22 40.62464 -72.67143 29923 ft 313 kts 233°
2026-05-07 14:22 40.59442 -72.71266 29918 ft 313 kts 233°
2026-05-07 14:23 40.56420 -72.75386 29930 ft 313 kts 233°
2026-05-07 14:23 40.53394 -72.79504 29917 ft 313 kts 233°
2026-05-07 14:24 40.50369 -72.83616 29921 ft 313 kts 233°
2026-05-07 14:24 40.47336 -72.87734 29886 ft 315 kts 233°
2026-05-07 14:25 40.44292 -72.91861 29917 ft 315 kts 233°
2026-05-07 14:25 40.41243 -72.95988 29942 ft 314 kts 233°
2026-05-07 14:26 40.38204 -73.00096 29913 ft 313 kts 233°
2026-05-07 14:26 40.35185 -73.04172 29918 ft 314 kts 233°
2026-05-07 14:27 40.32140 -73.08278 29923 ft 313 kts 233°
2026-05-07 14:27 40.29095 -73.12376 29872 ft 311 kts 233°
2026-05-07 14:28 40.26072 -73.16444 29921 ft 315 kts 233°
2026-05-07 14:28 40.23004 -73.20560 29914 ft 315 kts 233°
2026-05-07 14:29 40.19955 -73.24648 29925 ft 315 kts 233°
2026-05-07 14:29 40.16888 -73.28754 29919 ft 315 kts 233°
2026-05-07 14:30 40.13828 -73.32846 29924 ft 314 kts 233°
2026-05-07 14:30 40.12295 -73.34897 29606 ft 310 kts 232°
2026-05-07 14:30 40.10797 -73.36893 29360 ft 309 kts 232°
2026-05-07 14:30 40.09283 -73.38916 29126 ft 313 kts 232°
2026-05-07 14:31 40.07759 -73.40945 28883 ft 312 kts 232°
2026-05-07 14:31 40.06241 -73.42965 28640 ft 311 kts 232°
2026-05-07 14:31 40.04728 -73.44981 28404 ft 310 kts 232°
2026-05-07 14:31 40.03240 -73.46960 28169 ft 309 kts 232°
2026-05-07 14:32 40.01733 -73.48963 27791 ft 308 kts 232°
2026-05-07 14:32 40.00237 -73.50951 27455 ft 306 kts 232°
2026-05-07 14:32 39.98748 -73.52928 27129 ft 305 kts 232°
2026-05-07 14:32 39.97263 -73.54899 26694 ft 304 kts 232°
2026-05-07 14:33 39.95788 -73.56854 26277 ft 302 kts 231°
2026-05-07 14:33 39.94319 -73.58808 25812 ft 302 kts 231°
2026-05-07 14:33 39.92847 -73.60750 25408 ft 301 kts 231°
2026-05-07 14:33 39.91385 -73.62683 25011 ft 299 kts 231°
2026-05-07 14:34 39.89926 -73.64612 24612 ft 297 kts 231°
2026-05-07 14:34 39.88477 -73.66525 24257 ft 296 kts 231°
2026-05-07 14:34 39.87034 -73.68435 23883 ft 295 kts 231°
2026-05-07 14:34 39.85596 -73.70334 23500 ft 294 kts 230°
2026-05-07 14:35 39.84163 -73.72223 23047 ft 293 kts 230°
2026-05-07 14:35 39.82731 -73.74110 22594 ft 291 kts 230°
2026-05-07 14:35 39.81313 -73.75979 22148 ft 290 kts 231°
2026-05-07 14:35 39.79895 -73.77845 21717 ft 288 kts 231°
2026-05-07 14:36 39.78505 -73.79675 21298 ft 287 kts 231°
2026-05-07 14:36 39.77102 -73.81520 20886 ft 286 kts 231°
2026-05-07 14:36 39.75703 -73.83361 20423 ft 287 kts 231°
2026-05-07 14:36 39.74291 -73.85213 20008 ft 286 kts 231°
2026-05-07 14:37 39.72898 -73.87040 19605 ft 285 kts 231°
2026-05-07 14:37 39.70112 -73.90694 18845 ft 283 kts 231°
2026-05-07 14:37 39.68726 -73.92510 18476 ft 283 kts 231°
2026-05-07 14:38 39.67341 -73.94324 18102 ft 282 kts 231°
2026-05-07 14:38 39.65975 -73.96113 17682 ft 282 kts 231°
2026-05-07 14:38 39.64588 -73.97926 17270 ft 283 kts 231°
2026-05-07 14:38 39.63200 -73.99741 16857 ft 283 kts 231°
2026-05-07 14:39 39.61814 -74.01550 16463 ft 281 kts 231°
2026-05-07 14:39 39.60435 -74.03350 16068 ft 281 kts 231°
2026-05-07 14:39 39.59150 -74.05027 15709 ft 282 kts 231°
2026-05-07 14:39 39.57763 -74.06836 15311 ft 283 kts 231°
2026-05-07 14:40 39.56372 -74.08648 14941 ft 283 kts 231°
2026-05-07 14:40 39.55004 -74.10431 14567 ft 283 kts 231°
2026-05-07 14:40 39.53931 -74.12524 14181 ft 275 kts 252°
2026-05-07 14:40 39.53523 -74.14902 14050 ft 274 kts 260°
2026-05-07 14:41 39.53270 -74.17359 13993 ft 276 kts 262°
2026-05-07 14:41 39.53086 -74.19851 13777 ft 279 kts 263°
2026-05-07 14:41 39.52932 -74.22344 13337 ft 277 kts 264°
2026-05-07 14:41 39.52798 -74.24829 12889 ft 275 kts 264°
2026-05-07 14:42 39.52681 -74.27300 12448 ft 275 kts 265°
2026-05-07 14:42 39.52675 -74.29698 12032 ft 276 kts 268°
2026-05-07 14:42 39.52712 -74.32184 11606 ft 277 kts 268°
2026-05-07 14:42 39.52757 -74.34662 11186 ft 272 kts 268°
2026-05-07 14:43 39.52792 -74.36514 10874 ft 267 kts 268°
2026-05-07 14:43 39.52835 -74.38881 10455 ft 260 kts 268°
2026-05-07 14:43 39.52877 -74.41208 10044 ft 255 kts 268°
2026-05-07 14:43 39.52916 -74.43463 9613 ft 252 kts 268°
2026-05-07 14:44 39.52955 -74.45726 9197 ft 251 kts 268°
2026-05-07 14:44 39.52995 -74.47983 9023 ft 242 kts 268°
2026-05-07 14:44 39.53033 -74.50110 8968 ft 239 kts 268°
2026-05-07 14:44 39.53069 -74.52267 8953 ft 241 kts 268°
2026-05-07 14:45 39.53106 -74.54439 8965 ft 242 kts 268°
2026-05-07 14:45 39.53143 -74.56628 8973 ft 242 kts 268°
2026-05-07 14:45 39.53179 -74.58813 8964 ft 242 kts 268°
2026-05-07 14:45 39.53212 -74.60781 8963 ft 241 kts 268°
2026-05-07 14:46 39.53245 -74.62956 9023 ft 242 kts 268°
2026-05-07 14:46 39.53280 -74.65126 9052 ft 241 kts 269°
2026-05-07 14:46 39.53325 -74.67298 9063 ft 240 kts 269°
2026-05-07 14:46 39.53356 -74.69446 9037 ft 241 kts 268°
2026-05-07 14:47 39.53379 -74.71624 9009 ft 242 kts 268°
2026-05-07 14:47 39.53409 -74.73799 8980 ft 242 kts 268°
2026-05-07 14:47 39.53447 -74.75984 8958 ft 242 kts 268°
2026-05-07 14:47 39.53484 -74.78172 8950 ft 242 kts 268°
2026-05-07 14:48 39.53520 -74.80351 8962 ft 243 kts 268°
2026-05-07 14:48 39.53554 -74.82538 8975 ft 242 kts 268°
2026-05-07 14:48 39.53585 -74.84568 8975 ft 241 kts 268°
2026-05-07 14:48 39.53619 -74.86740 8981 ft 241 kts 268°
2026-05-07 14:49 39.53652 -74.88893 8968 ft 241 kts 268°
2026-05-07 14:49 39.53685 -74.91070 8949 ft 241 kts 268°
2026-05-07 14:49 39.53717 -74.93245 8953 ft 241 kts 269°
2026-05-07 14:49 39.54129 -74.95363 8951 ft 253 kts 294°
2026-05-07 14:50 39.55252 -74.97166 8975 ft 260 kts 305°
2026-05-07 14:50 39.56202 -74.98417 8985 ft 263 kts 307°
2026-05-07 14:50 39.57524 -75.00038 8886 ft 264 kts 309°
2026-05-07 14:50 39.58971 -75.01531 8823 ft 266 kts 314°
2026-05-07 14:51 39.60471 -75.02967 8672 ft 268 kts 315°
2026-05-07 14:51 39.61986 -75.04371 8436 ft 267 kts 316°
2026-05-07 14:51 39.63491 -75.05766 8157 ft 265 kts 316°
2026-05-07 14:51 39.64991 -75.07136 7888 ft 264 kts 321°
2026-05-07 14:52 39.66717 -75.08054 7612 ft 272 kts 336°
2026-05-07 14:52 39.68567 -75.08518 7347 ft 275 kts 345°
2026-05-07 14:52 39.70505 -75.08524 7031 ft 287 kts
2026-05-07 14:52 39.72355 -75.07450 6715 ft 295 kts 26°
2026-05-07 14:53 39.73496 -75.06438 6512 ft 294 kts 31°
2026-05-07 14:53 39.75629 -75.04232 6070 ft 296 kts 36°
2026-05-07 14:53 39.77086 -75.02356 5740 ft 293 kts 42°
2026-05-07 14:53 39.78465 -75.00427 5410 ft 287 kts 43°
2026-05-07 14:54 39.79804 -74.98521 5060 ft 282 kts 42°
2026-05-07 14:54 39.81109 -74.96663 4740 ft 276 kts 43°
2026-05-07 14:54 39.82305 -74.94718 4393 ft 274 kts 50°
2026-05-07 14:54 39.83289 -74.92621 4101 ft 269 kts 57°
2026-05-07 14:55 39.84019 -74.90410 4017 ft 269 kts 74°
2026-05-07 14:55 39.83988 -74.87939 4010 ft 278 kts 96°
2026-05-07 14:55 39.83755 -74.85444 3995 ft 276 kts 82°
2026-05-07 14:55 39.84328 -74.83170 4007 ft 265 kts 52°
2026-05-07 14:56 39.85666 -74.81650 3982 ft 250 kts 20°
2026-05-07 14:56 39.87279 -74.81321 3960 ft 226 kts 354°
2026-05-07 14:56 39.88792 -74.81522 3949 ft 212 kts 349°
2026-05-07 14:56 39.90213 -74.81877 3909 ft 205 kts 335°
2026-05-07 14:57 39.91274 -74.83059 3747 ft 199 kts 312°
2026-05-07 14:57 39.91915 -74.83882 3666 ft 191 kts 319°
2026-05-07 14:57 39.93148 -74.85334 3508 ft 172 kts 315°
2026-05-07 14:57 39.93826 -74.86519 3441 ft 157 kts 300°
2026-05-07 14:58 39.94087 -74.87855 3363 ft 149 kts 278°
2026-05-07 14:58 39.94026 -74.88712 3313 ft 138 kts 267°
2026-05-07 14:58 39.93805 -74.90253 3258 ft 125 kts 264°
2026-05-07 14:58 39.93600 -74.91352 3202 ft 125 kts 262°
2026-05-07 14:59 39.93382 -74.92462 3112 ft 127 kts 262°
2026-05-07 14:59 39.93174 -74.93537 3050 ft 126 kts 261°
2026-05-07 14:59 39.92957 -74.94652 3007 ft 127 kts 261°
2026-05-07 14:59 39.92739 -74.95762 2995 ft 127 kts 261°
2026-05-07 15:00 39.92529 -74.96837 3004 ft 127 kts 263°
2026-05-07 15:00 39.92311 -74.97950 3044 ft 127 kts 262°
2026-05-07 15:00 39.92101 -74.99011 3130 ft 120 kts 264°
2026-05-07 15:00 39.91897 -75.00093 3239 ft 128 kts 263°
2026-05-07 15:01 39.91667 -75.01225 3227 ft 130 kts 264°
2026-05-07 15:01 39.91444 -75.02379 3051 ft 129 kts 263°
2026-05-07 15:01 39.91297 -75.03119 2933 ft 126 kts 263°
2026-05-07 15:01 39.91080 -75.04227 2782 ft 126 kts 262°
2026-05-07 15:02 39.90859 -75.05352 2633 ft 130 kts 262°
2026-05-07 15:02 39.90629 -75.06514 2553 ft 136 kts 262°
2026-05-07 15:02 39.90396 -75.07727 2430 ft 136 kts 261°
2026-05-07 15:02 39.90161 -75.08899 2200 ft 131 kts 262°
2026-05-07 15:03 39.89940 -75.10016 1976 ft 122 kts 262°
2026-05-07 15:03 39.89728 -75.11110 1804 ft 126 kts 262°
2026-05-07 15:03 39.89506 -75.12223 1653 ft 131 kts 262°
2026-05-07 15:03 39.89280 -75.13372 1489 ft 130 kts 260°
2026-05-07 15:04 39.89057 -75.14503 1322 ft 128 kts 260°
2026-05-07 15:04 39.88833 -75.15635 1152 ft 129 kts 262°
2026-05-07 15:04 39.88611 -75.16758 960 ft 127 kts 262°
2026-05-07 15:04 39.88400 -75.17835 765 ft 121 kts 261°
2026-05-07 15:05 39.88185 -75.18913 604 ft 126 kts 261°
2026-05-07 15:05 39.87962 -75.20042 430 ft 128 kts 262°
2026-05-07 15:05 39.87742 -75.21143 218 ft 123 kts 263°
2026-05-07 15:05 39.87532 -75.22211 83 ft 120 kts 262°
2026-05-07 15:06 39.87332 -75.23223 14 ft 104 kts 263°
2026-05-07 15:06 39.87234 -75.23751 16 ft 19 kts 258°
2026-05-07 15:06 39.87247 -75.23824 19 ft 5 kts 310°
2026-05-07 15:06 39.87278 -75.23849 17 ft 6 kts 337°
2026-05-07 15:07 39.87308 -75.23865 17 ft 4 kts 330°
2026-05-07 15:07 39.87338 -75.23877 17 ft 8 kts 353°
2026-05-07 15:07 39.87375 -75.23895 18 ft 6 kts 315°
2026-05-07 15:07 39.87387 -75.23942 19 ft 9 kts 266°
2026-05-07 15:08 39.87365 -75.24016 19 ft 4 kts 249°
2026-05-07 15:08 39.87363 -75.24038 20 ft 0 kts 278°
2026-05-07 15:08 39.87366 -75.24043 20 ft 2 kts 316°
2026-05-07 15:08 39.87387 -75.24051 21 ft 3 kts 356°
2026-05-07 15:09 39.87410 -75.24054 18 ft 0 kts 358°